| time (UTC) | temp C | wind direction | speed KPH | gust KPH | rain 1hr cm | rain 24hr cm | rain mn cm | humidity % | barometer mb |
| 20260505170508 | 28 | 76 | 0.0 | 17.7 | 0.00 | 0.00 | 0.00 | 35 | 1009.7 |
| 20260505170023 | 27 | 127 | 1.6 | 17.7 | 0.00 | 0.00 | 0.00 | 36 | 1009.7 |
| 20260505165504 | 28 | 118 | 1.6 | 12.9 | 0.00 | 0.00 | 0.00 | 36 | 1009.8 |
| 20260505165004 | 28 | 95 | 0.0 | 16.1 | 0.00 | 0.00 | 0.00 | 35 | 1009.9 |
| 20260505164508 | 27 | 99 | 0.0 | 19.3 | 0.00 | 0.00 | 0.00 | 36 | 1009.9 |
| 20260505164005 | 27 | 105 | 4.8 | 19.3 | 0.00 | 0.00 | 0.00 | 35 | 1010.2 |
| 20260505163505 | 28 | 131 | 0.0 | 17.7 | 0.00 | 0.00 | 0.00 | 36 | 1010.0 |
| 20260505163014 | 28 | 134 | 0.0 | 14.5 | 0.00 | 0.00 | 0.00 | 36 | 1010.0 |
| 20260505162506 | 28 | 98 | 0.0 | 11.3 | 0.00 | 0.00 | 0.00 | 36 | 1010.1 |
| 20260505162006 | 27 | 132 | 0.0 | 11.3 | 0.00 | 0.00 | 0.00 | 37 | 1010.2 |
| 20260505161518 | 27 | 65 | 0.0 | 11.3 | 0.00 | 0.00 | 0.00 | 36 | 1010.1 |
| 20260505161008 | 27 | 139 | 0.0 | 24.1 | 0.00 | 0.00 | 0.00 | 37 | 1010.3 |
| 20260505160508 | 27 | 107 | 0.0 | 24.1 | 0.00 | 0.00 | 0.00 | 38 | 1010.4 |
| 20260505153007 | 27 | 109 | 0.0 | 27.4 | 0.00 | 0.00 | 0.00 | 38 | 1010.7 |
| 20260505152504 | 27 | 91 | 0.0 | 11.3 | 0.00 | 0.00 | 0.00 | 38 | 1010.7 |
| 20260505152005 | 26 | 126 | 1.6 | 11.3 | 0.00 | 0.00 | 0.00 | 39 | 1010.8 |
| 20260505151512 | 26 | 105 | 0.0 | 4.8 | 0.00 | 0.00 | 0.00 | 39 | 1010.7 |
| 20260505151004 | 26 | 127 | 0.0 | 9.7 | 0.00 | 0.00 | 0.00 | 39 | 1010.8 |
| 20260505150508 | 26 | 154 | 0.0 | 9.7 | 0.00 | 0.00 | 0.00 | 39 | 1010.9 |
| 20260505140511 | 22 | 131 | 0.0 | 17.7 | 0.00 | 0.00 | 0.00 | 48 | 1011.5 |
| 20260505125002 | 20 | 115 | 0.0 | 11.3 | 0.00 | 0.00 | 0.00 | 56 | 1011.8 |
| 20260505124504 | 20 | 28 | 0.0 | 16.1 | 0.00 | 0.00 | 0.00 | 56 | 1011.9 |
| 20260505124003 | 20 | 174 | 1.6 | 16.1 | 0.00 | 0.00 | 0.00 | 54 | 1011.8 |
| 20260505123507 | 20 | 184 | 0.0 | 3.2 | 0.00 | 0.00 | 0.00 | 57 | 1011.8 |
| 20260505123003 | 19 | 131 | 0.0 | 0.0 | 0.00 | 0.00 | 0.00 | 58 | 1011.6 |
| 20260505122503 | 19 | 72 | 0.0 | 0.0 | 0.00 | 0.00 | 0.00 | 58 | 1011.4 |
| 20260505122004 | 18 | 143 | 0.0 | 0.0 | 0.00 | 0.00 | 0.00 | 60 | 1011.5 |
| 20260505121507 | 18 | 117 | 0.0 | 1.6 | 0.00 | 0.00 | 0.00 | 61 | 1011.4 |
| 20260505121004 | 18 | 129 | 0.0 | 14.5 | 0.00 | 0.00 | 0.00 | 61 | 1011.5 |
| 20260505120508 | 17 | 152 | 0.0 | 14.5 | 0.00 | 0.00 | 0.00 | 63 | 1011.4 |
| 20260505120006 | 17 | 113 | 0.0 | 0.0 | 0.00 | 0.00 | 0.00 | 65 | 1011.4 |
| 20260505115504 | 16 | 100 | 0.0 | 0.0 | 0.00 | 0.00 | 0.00 | 67 | 1011.4 |
| 20260505115004 | 16 | 127 | 0.0 | 0.0 | 0.00 | 0.00 | 0.00 | 69 | 1011.4 |
| 20260505114516 | 15 | 100 | 0.0 | 0.0 | 0.00 | 0.00 | 0.00 | 68 | 1011.4 |
| 20260505114004 | 14 | 118 | 0.0 | 0.0 | 0.00 | 0.00 | 0.00 | 66 | 1011.5 |
| 20260505113501 | 14 | 118 | 0.0 | 0.0 | 0.00 | 0.00 | 0.00 | 63 | 1011.4 |
| 20260505113010 | 13 | 118 | 0.0 | 0.0 | 0.00 | 0.00 | 0.00 | 58 | 1011.3 |
| 20260505112503 | 13 | 118 | 0.0 | 0.0 | 0.00 | 0.00 | 0.00 | 59 | 1011.3 |
| 20260505112005 | 12 | 118 | 0.0 | 0.0 | 0.00 | 0.00 | 0.00 | 58 | 1011.1 |
| 20260505111507 | 12 | 118 | 0.0 | 0.0 | 0.00 | 0.00 | 0.00 | 57 | 1011.1 |
| 20260505111004 | 12 | 118 | 0.0 | 0.0 | 0.00 | 0.00 | 0.00 | 57 | 1011.1 |
| 20260505110503 | 12 | 118 | 0.0 | 0.0 | 0.00 | 0.00 | 0.00 | 53 | 1011.2 |
| 20260505102002 | 10 | 118 | 0.0 | 0.0 | 0.00 | 0.00 | 0.00 | 44 | 1011.0 |
| 20260505101505 | 10 | 118 | 0.0 | 0.0 | 0.00 | 0.00 | 0.00 | 43 | 1010.9 |
| 20260505101004 | 10 | 118 | 0.0 | 0.0 | 0.00 | 0.00 | 0.00 | 46 | 1010.8 |
| 20260505100504 | 10 | 118 | 0.0 | 0.0 | 0.00 | 0.00 | 0.00 | 46 | 1010.7 |
| 20260505100003 | 10 | 118 | 0.0 | 0.0 | 0.00 | 0.00 | 0.00 | 48 | 1010.8 |
| 20260505095507 | 10 | 118 | 0.0 | 0.0 | 0.00 | 0.00 | 0.00 | 52 | 1010.6 |
| 20260505095004 | 11 | 118 | 0.0 | 0.0 | 0.00 | 0.00 | 0.00 | 54 | 1010.5 |
| 20260505094506 | 11 | 118 | 0.0 | 0.0 | 0.00 | 0.00 | 0.00 | 54 | 1010.6 |
| 20260505094003 | 11 | 118 | 0.0 | 0.0 | 0.00 | 0.00 | 0.00 | 54 | 1010.7 |
| 20260505093503 | 11 | 118 | 0.0 | 0.0 | 0.00 | 0.00 | 0.00 | 54 | 1010.8 |
| 20260505093025 | 11 | 118 | 0.0 | 0.0 | 0.00 | 0.00 | 0.00 | 57 | 1010.7 |
| 20260505092504 | 11 | 118 | 0.0 | 0.0 | 0.00 | 0.00 | 0.00 | 58 | 1010.7 |
| 20260505092004 | 11 | 118 | 0.0 | 0.0 | 0.00 | 0.00 | 0.00 | 59 | 1010.7 |
| 20260505091516 | 11 | 118 | 0.0 | 0.0 | 0.00 | 0.00 | 0.00 | 60 | 1010.6 |
| 20260505091007 | 11 | 118 | 0.0 | 0.0 | 0.00 | 0.00 | 0.00 | 60 | 1010.6 |
| 20260505090506 | 12 | 118 | 0.0 | 0.0 | 0.00 | 0.00 | 0.00 | 61 | 1010.3 |
| 20260505090004 | 12 | 118 | 0.0 | 0.0 | 0.00 | 0.00 | 0.00 | 62 | 1010.2 |
| 20260505085503 | 12 | 118 | 0.0 | 0.0 | 0.00 | 0.00 | 0.00 | 64 | 1010.1 |
| 20260505085003 | 12 | 118 | 0.0 | 0.0 | 0.00 | 0.00 | 0.00 | 65 | 1010.1 |
| 20260505084507 | 12 | 118 | 0.0 | 0.0 | 0.00 | 0.00 | 0.00 | 66 | 1010.1 |
| 20260505084004 | 12 | 118 | 0.0 | 0.0 | 0.00 | 0.00 | 0.00 | 67 | 1010.1 |
| 20260505083502 | 12 | 118 | 0.0 | 0.0 | 0.00 | 0.00 | 0.00 | 67 | 1010.2 |
| 20260505083008 | 13 | 118 | 0.0 | 0.0 | 0.00 | 0.00 | 0.00 | 68 | 1010.2 |
| 20260505082508 | 13 | 118 | 0.0 | 0.0 | 0.00 | 0.00 | 0.00 | 68 | 1010.2 |
| 20260505082003 | 13 | 118 | 0.0 | 0.0 | 0.00 | 0.00 | 0.00 | 69 | 1010.2 |
| 20260505081521 | 13 | 118 | 0.0 | 0.0 | 0.00 | 0.00 | 0.00 | 69 | 1010.2 |
| 20260505081007 | 13 | 118 | 0.0 | 0.0 | 0.00 | 0.00 | 0.00 | 69 | 1010.2 |
| 20260505080507 | 13 | 118 | 0.0 | 0.0 | 0.00 | 0.00 | 0.00 | 69 | 1010.2 |
| 20260505080020 | 13 | 118 | 0.0 | 0.0 | 0.00 | 0.00 | 0.00 | 69 | 1010.3 |
| 20260505075508 | 14 | 118 | 0.0 | 0.0 | 0.00 | 0.00 | 0.00 | 69 | 1010.4 |
| 20260505075007 | 14 | 118 | 0.0 | 0.0 | 0.00 | 0.00 | 0.00 | 69 | 1010.4 |
| 20260505074507 | 14 | 118 | 0.0 | 0.0 | 0.00 | 0.00 | 0.00 | 69 | 1010.4 |
| 20260505074003 | 14 | 118 | 0.0 | 0.0 | 0.00 | 0.00 | 0.00 | 68 | 1010.4 |
| 20260505073504 | 15 | 118 | 0.0 | 0.0 | 0.00 | 0.00 | 0.00 | 68 | 1010.4 |
| 20260505073008 | 15 | 118 | 0.0 | 0.0 | 0.00 | 0.00 | 0.00 | 67 | 1010.3 |
| 20260505072502 | 15 | 118 | 0.0 | 0.0 | 0.00 | 0.00 | 0.00 | 67 | 1010.2 |
| 20260505072003 | 15 | 118 | 0.0 | 0.0 | 0.00 | 0.00 | 0.00 | 66 | 1010.2 |
| 20260505071511 | 15 | 118 | 0.0 | 0.0 | 0.00 | 0.00 | 0.00 | 66 | 1010.2 |
| 20260505071006 | 15 | 120 | 0.0 | 0.0 | 0.00 | 0.00 | 0.00 | 65 | 1010.2 |
| 20260505070504 | 16 | 113 | 0.0 | 0.0 | 0.00 | 0.00 | 0.00 | 65 | 1010.2 |
| 20260505070016 | 15 | 120 | 0.0 | 0.0 | 0.00 | 0.00 | 0.00 | 65 | 1010.3 |
| 20260505065508 | 15 | 113 | 0.0 | 0.0 | 0.00 | 0.00 | 0.00 | 64 | 1010.2 |
| 20260505065007 | 15 | 134 | 0.0 | 0.0 | 0.00 | 0.00 | 0.00 | 64 | 1010.2 |
| 20260505064525 | 15 | 119 | 0.0 | 0.0 | 0.00 | 0.00 | 0.00 | 64 | 1010.2 |
| 20260505064007 | 15 | 122 | 0.0 | 0.0 | 0.00 | 0.00 | 0.00 | 65 | 1010.2 |
| 20260505063507 | 15 | 147 | 0.0 | 0.0 | 0.00 | 0.00 | 0.00 | 64 | 1010.2 |
| 20260505063004 | 16 | 112 | 0.0 | 0.0 | 0.00 | 0.00 | 0.00 | 64 | 1010.2 |
| 20260505062505 | 15 | 126 | 0.0 | 0.0 | 0.00 | 0.00 | 0.00 | 64 | 1010.3 |
| 20260505062003 | 16 | 116 | 0.0 | 0.0 | 0.00 | 0.00 | 0.00 | 63 | 1010.2 |
| 20260505061507 | 16 | 120 | 0.0 | 0.0 | 0.00 | 0.00 | 0.00 | 63 | 1010.2 |
| 20260505061006 | 16 | 120 | 0.0 | 6.4 | 0.00 | 0.00 | 0.00 | 62 | 1010.2 |
| 20260505060504 | 16 | 117 | 0.0 | 6.4 | 0.00 | 0.00 | 0.00 | 62 | 1010.2 |
| 20260505060025 | 16 | 104 | 0.0 | 0.0 | 0.00 | 0.00 | 0.00 | 62 | 1010.2 |
| 20260505055507 | 16 | 124 | 0.0 | 9.7 | 0.00 | 0.00 | 0.00 | 62 | 1010.2 |
| 20260505055006 | 16 | 108 | 0.0 | 9.7 | 0.00 | 0.00 | 0.00 | 62 | 1010.2 |
| 20260505054531 | 16 | 125 | 0.0 | 6.4 | 0.00 | 0.00 | 0.00 | 62 | 1010.2 |
| 20260505054012 | 16 | 112 | 0.0 | 0.0 | 0.00 | 0.00 | 0.00 | 62 | 1010.1 |
| 20260505053507 | 16 | 122 | 0.0 | 0.0 | 0.00 | 0.00 | 0.00 | 62 | 1010.2 |
| 20260505053020 | 16 | 126 | 0.0 | 0.0 | 0.00 | 0.00 | 0.00 | 61 | 1010.2 |
| 20260505052507 | 16 | 118 | 0.0 | 1.6 | 0.00 | 0.00 | 0.00 | 60 | 1010.3 |
| 20260505052011 | 16 | 140 | 0.0 | 3.2 | 0.00 | 0.00 | 0.00 | 60 | 1010.3 |
| 20260505051524 | 16 | 96 | 0.0 | 3.2 | 0.00 | 0.00 | 0.00 | 60 | 1010.2 |
| 20260505051004 | 16 | 121 | 0.0 | 1.6 | 0.00 | 0.00 | 0.00 | 60 | 1010.3 |
| 20260505050508 | 16 | 113 | 0.0 | 1.6 | 0.00 | 0.00 | 0.00 | 60 | 1010.3 |
| 20260505041521 | 15 | 103 | 0.0 | 0.0 | 0.00 | 0.00 | 0.00 | 57 | 1010.2 |
| 20260505041007 | 15 | 123 | 0.0 | 0.0 | 0.00 | 0.00 | 0.00 | 57 | 1010.2 |
| 20260505040509 | 16 | 79 | 0.0 | 0.0 | 0.00 | 0.00 | 0.00 | 57 | 1010.2 |
| 20260505040025 | 15 | 158 | 0.0 | 0.0 | 0.00 | 0.00 | 0.00 | 56 | 1010.2 |
| 20260505035508 | 16 | 131 | 0.0 | 0.0 | 0.00 | 0.00 | 0.00 | 55 | 1010.2 |
| 20260505035004 | 16 | 36 | 0.0 | 0.0 | 0.00 | 0.00 | 0.00 | 55 | 1010.2 |
| 20260505034512 | 16 | 192 | 0.0 | 0.0 | 0.00 | 0.00 | 0.00 | 55 | 1010.2 |
| 20260505034005 | 16 | 107 | 0.0 | 0.0 | 0.00 | 0.00 | 0.00 | 55 | 1010.2 |
| 20260505033504 | 16 | 108 | 0.0 | 0.0 | 0.00 | 0.00 | 0.00 | 56 | 1010.1 |
| 20260505033018 | 16 | 203 | 0.0 | 0.0 | 0.00 | 0.00 | 0.00 | 56 | 1010.2 |
| 20260505032508 | 16 | 129 | 0.0 | 0.0 | 0.00 | 0.00 | 0.00 | 55 | 1010.3 |
| 20260505032010 | 16 | 92 | 0.0 | 0.0 | 0.00 | 0.00 | 0.00 | 54 | 1010.3 |
| 20260505031521 | 16 | 122 | 0.0 | 0.0 | 0.00 | 0.00 | 0.00 | 55 | 1010.3 |
| 20260505031008 | 16 | 139 | 0.0 | 0.0 | 0.00 | 0.00 | 0.00 | 56 | 1010.2 |
| 20260505030506 | 15 | 100 | 0.0 | 0.0 | 0.00 | 0.00 | 0.00 | 57 | 1010.2 |
| 20260505030028 | 15 | 122 | 0.0 | 0.0 | 0.00 | 0.00 | 0.00 | 57 | 1010.1 |
| 20260505025508 | 15 | 127 | 0.0 | 0.0 | 0.00 | 0.00 | 0.00 | 58 | 1010.3 |
| 20260505025010 | 15 | 108 | 0.0 | 0.0 | 0.00 | 0.00 | 0.00 | 59 | 1010.4 |
| 20260505024528 | 15 | 120 | 0.0 | 0.0 | 0.00 | 0.00 | 0.00 | 60 | 1010.4 |
| 20260505024008 | 15 | 129 | 0.0 | 0.0 | 0.00 | 0.00 | 0.00 | 60 | 1010.5 |
| 20260505023505 | 15 | 120 | 0.0 | 0.0 | 0.00 | 0.00 | 0.00 | 60 | 1010.6 |
| 20260505023012 | 15 | 109 | 0.0 | 0.0 | 0.00 | 0.00 | 0.00 | 61 | 1010.5 |
| 20260505022503 | 14 | 100 | 0.0 | 0.0 | 0.00 | 0.00 | 0.00 | 60 | 1010.6 |
| 20260505022002 | 14 | 100 | 0.0 | 0.0 | 0.00 | 0.00 | 0.00 | 60 | 1010.6 |
| 20260505021503 | 15 | 100 | 0.0 | 0.0 | 0.00 | 0.00 | 0.00 | 59 | 1010.6 |
| 20260505021002 | 15 | 100 | 0.0 | 0.0 | 0.00 | 0.00 | 0.00 | 57 | 1010.6 |
| 20260505020502 | 15 | 100 | 0.0 | 0.0 | 0.00 | 0.00 | 0.00 | 57 | 1010.6 |
| 20260505020002 | 15 | 100 | 0.0 | 0.0 | 0.00 | 0.00 | 0.00 | 57 | 1010.6 |
| 20260505015504 | 15 | 100 | 0.0 | 0.0 | 0.00 | 0.00 | 0.00 | 58 | 1010.6 |
| 20260505015004 | 15 | 105 | 0.0 | 0.0 | 0.00 | 0.00 | 0.00 | 60 | 1010.5 |
| 20260505014508 | 15 | 105 | 0.0 | 0.0 | 0.00 | 0.00 | 0.00 | 59 | 1010.6 |
| 20260505014003 | 15 | 105 | 0.0 | 0.0 | 0.00 | 0.00 | 0.00 | 60 | 1010.5 |
| 20260505013504 | 14 | 91 | 0.0 | 0.0 | 0.00 | 0.00 | 0.00 | 62 | 1010.6 |
| 20260505013006 | 14 | 91 | 0.0 | 0.0 | 0.00 | 0.00 | 0.00 | 63 | 1010.6 |
| 20260505012504 | 14 | 91 | 0.0 | 0.0 | 0.00 | 0.00 | 0.00 | 62 | 1010.5 |
| 20260505012005 | 14 | 91 | 0.0 | 0.0 | 0.00 | 0.00 | 0.00 | 59 | 1010.6 |
| 20260505011519 | 14 | 91 | 0.0 | 0.0 | 0.00 | 0.00 | 0.00 | 60 | 1010.4 |
| 20260505011006 | 15 | 91 | 0.0 | 0.0 | 0.00 | 0.00 | 0.00 | 61 | 1010.3 |
| 20260505010502 | 15 | 91 | 0.0 | 0.0 | 0.00 | 0.00 | 0.00 | 57 | 1010.2 |
| 20260505010003 | 15 | 91 | 0.0 | 0.0 | 0.00 | 0.00 | 0.00 | 56 | 1010.2 |
| 20260505005504 | 15 | 91 | 0.0 | 0.0 | 0.00 | 0.00 | 0.00 | 56 | 1010.1 |
| 20260505005004 | 16 | 91 | 0.0 | 0.0 | 0.00 | 0.00 | 0.00 | 51 | 1010.1 |
| 20260505004514 | 16 | 91 | 0.0 | 0.0 | 0.00 | 0.00 | 0.00 | 51 | 1010.1 |
| 20260505004003 | 16 | 91 | 0.0 | 0.0 | 0.00 | 0.00 | 0.00 | 50 | 1010.0 |
| 20260505003507 | 17 | 91 | 0.0 | 0.0 | 0.00 | 0.00 | 0.00 | 50 | 1010.0 |
| 20260505003007 | 17 | 91 | 0.0 | 0.0 | 0.00 | 0.00 | 0.00 | 49 | 1010.0 |
| 20260505002504 | 17 | 91 | 0.0 | 0.0 | 0.00 | 0.00 | 0.00 | 48 | 1010.0 |
| 20260505002005 | 18 | 91 | 0.0 | 0.0 | 0.00 | 0.00 | 0.00 | 47 | 1010.0 |
| 20260505001512 | 18 | 103 | 0.0 | 0.0 | 0.00 | 0.00 | 0.00 | 45 | 1009.9 |
| 20260505001005 | 18 | 103 | 0.0 | 0.0 | 0.00 | 0.00 | 0.00 | 44 | 1009.8 |
| 20260505000505 | 19 | 103 | 0.0 | 0.0 | 0.00 | 0.00 | 0.00 | 44 | 1009.8 |
| 20260505000020 | 19 | 108 | 0.0 | 0.0 | 0.00 | 0.00 | 0.00 | 43 | 1009.8 |
| 20260504235505 | 19 | 119 | 0.0 | 1.6 | 0.00 | 0.00 | 0.00 | 41 | 1009.8 |
| 20260504235002 | 20 | 99 | 0.0 | 1.6 | 0.00 | 0.00 | 0.00 | 40 | 1009.8 |
| 20260504234503 | 20 | 120 | 0.0 | 0.0 | 0.00 | 0.00 | 0.00 | 39 | 1009.8 |
| 20260504234003 | 20 | 117 | 0.0 | 1.6 | 0.00 | 0.00 | 0.00 | 39 | 1009.7 |
| 20260504233503 | 20 | 121 | 0.0 | 4.8 | 0.00 | 0.00 | 0.00 | 38 | 1009.7 |
| 20260504233004 | 20 | 126 | 0.0 | 12.9 | 0.00 | 0.00 | 0.00 | 38 | 1009.5 |
| 20260504232504 | 21 | 131 | 0.0 | 16.1 | 0.00 | 0.00 | 0.00 | 37 | 1009.5 |
| 20260504232004 | 21 | 68 | 0.0 | 16.1 | 0.00 | 0.00 | 0.00 | 37 | 1009.6 |
| 20260504231523 | 21 | 134 | 0.0 | 6.4 | 0.00 | 0.00 | 0.00 | 36 | 1009.5 |
| 20260504231003 | 21 | 127 | 0.0 | 3.2 | 0.00 | 0.00 | 0.00 | 36 | 1009.5 |
| 20260504230503 | 21 | 99 | 0.0 | 11.3 | 0.00 | 0.00 | 0.00 | 36 | 1009.5 |
| 20260504230012 | 21 | 141 | 0.0 | 11.3 | 0.00 | 0.00 | 0.00 | 36 | 1009.5 |
| 20260504225507 | 21 | 127 | 0.0 | 8.0 | 0.00 | 0.00 | 0.00 | 36 | 1009.4 |
| 20260504225004 | 21 | 139 | 0.0 | 1.6 | 0.00 | 0.00 | 0.00 | 36 | 1009.5 |
| 20260504224516 | 22 | 98 | 0.0 | 30.6 | 0.00 | 0.00 | 0.00 | 35 | 1009.5 |
| 20260504224004 | 21 | 115 | 0.0 | 30.6 | 0.00 | 0.00 | 0.00 | 35 | 1009.5 |
| 20260504223503 | 22 | 119 | 0.0 | 11.3 | 0.00 | 0.00 | 0.00 | 34 | 1009.6 |
| 20260504223003 | 22 | 238 | 0.0 | 11.3 | 0.00 | 0.00 | 0.00 | 35 | 1009.5 |
| 20260504222505 | 22 | 107 | 0.0 | 14.5 | 0.00 | 0.00 | 0.00 | 35 | 1009.5 |
| 20260504222003 | 22 | 134 | 0.0 | 14.5 | 0.00 | 0.00 | 0.00 | 35 | 1009.6 |
| 20260504221505 | 22 | 134 | 0.0 | 20.9 | 0.00 | 0.00 | 0.00 | 35 | 1009.7 |
| 20260504221004 | 22 | 115 | 0.0 | 20.9 | 0.00 | 0.00 | 0.00 | 34 | 1009.7 |
| 20260504220503 | 22 | 140 | 0.0 | 11.3 | 0.00 | 0.00 | 0.00 | 34 | 1009.7 |
| 20260504220010 | 22 | 115 | 1.6 | 9.7 | 0.00 | 0.00 | 0.00 | 34 | 1009.7 |
| 20260504215504 | 22 | 131 | 0.0 | 17.7 | 0.00 | 0.00 | 0.00 | 34 | 1009.7 |
| 20260504215009 | 22 | 129 | 0.0 | 17.7 | 0.00 | 0.00 | 0.00 | 34 | 1009.7 |
| 20260504214517 | 22 | 144 | 0.0 | 19.3 | 0.00 | 0.00 | 0.00 | 33 | 1009.7 |
| 20260504214004 | 23 | 122 | 0.0 | 19.3 | 0.00 | 0.00 | 0.00 | 34 | 1009.7 |
| 20260504213511 | 22 | 120 | 0.0 | 16.1 | 0.00 | 0.00 | 0.00 | 33 | 1009.7 |
| 20260504213018 | 23 | 130 | 0.0 | 8.0 | 0.00 | 0.00 | 0.00 | 34 | 1009.8 |
| 20260504212508 | 23 | 125 | 0.0 | 9.7 | 0.00 | 0.00 | 0.00 | 33 | 1009.9 |
| 20260504212007 | 23 | 119 | 0.0 | 9.7 | 0.00 | 0.00 | 0.00 | 34 | 1009.8 |
| 20260504211503 | 23 | 115 | 0.0 | 19.3 | 0.00 | 0.00 | 0.00 | 34 | 1009.8 |
| 20260504211004 | 23 | 129 | 0.0 | 19.3 | 0.00 | 0.00 | 0.00 | 33 | 1009.9 |
| 20260504210503 | 23 | 120 | 0.0 | 12.9 | 0.00 | 0.00 | 0.00 | 33 | 1009.8 |
| 20260504210013 | 23 | 124 | 0.0 | 4.8 | 0.00 | 0.00 | 0.00 | 32 | 1009.8 |
| 20260504205504 | 23 | 133 | 0.0 | 3.2 | 0.00 | 0.00 | 0.00 | 34 | 1009.8 |
| 20260504205004 | 23 | 124 | 0.0 | 16.1 | 0.00 | 0.00 | 0.00 | 33 | 1009.8 |
| 20260504204515 | 22 | 178 | 0.0 | 16.1 | 0.00 | 0.00 | 0.00 | 33 | 1009.9 |
| 20260504204004 | 22 | 67 | 0.0 | 9.7 | 0.00 | 0.00 | 0.00 | 33 | 1009.8 |
| 20260504203505 | 22 | 47 | 0.0 | 20.9 | 0.00 | 0.00 | 0.00 | 34 | 1009.9 |
| 20260504203014 | 22 | 124 | 0.0 | 20.9 | 0.00 | 0.00 | 0.00 | 33 | 1010.0 |
| 20260504202508 | 22 | 89 | 1.6 | 19.3 | 0.00 | 0.00 | 0.00 | 32 | 1010.0 |
| 20260504202006 | 23 | 124 | 0.0 | 16.1 | 0.00 | 0.00 | 0.00 | 32 | 1010.0 |
| 20260504201522 | 23 | 110 | 4.8 | 20.9 | 0.00 | 0.00 | 0.00 | 32 | 1010.0 |
| 20260504201007 | 22 | 166 | 0.0 | 20.9 | 0.00 | 0.00 | 0.00 | 32 | 1009.9 |
| 20260504200507 | 22 | 162 | 0.0 | 17.7 | 0.00 | 0.00 | 0.00 | 33 | 1010.2 |
| 20260504200009 | 23 | 124 | 6.4 | 17.7 | 0.00 | 0.00 | 0.00 | 32 | 1010.2 |
| 20260504195506 | 23 | 94 | 0.0 | 12.9 | 0.00 | 0.00 | 0.00 | 32 | 1010.2 |
| 20260504195007 | 23 | 139 | 0.0 | 12.9 | 0.00 | 0.00 | 0.00 | 33 | 1010.3 |
| 20260504194510 | 23 | 122 | 0.0 | 20.9 | 0.00 | 0.00 | 0.00 | 31 | 1010.2 |
| 20260504194004 | 23 | 134 | 0.0 | 20.9 | 0.00 | 0.00 | 0.00 | 32 | 1010.2 |
| 20260504193506 | 23 | 107 | 0.0 | 17.7 | 0.00 | 0.00 | 0.00 | 34 | 1010.2 |
| 20260504193021 | 22 | 151 | 0.0 | 17.7 | 0.00 | 0.00 | 0.00 | 33 | 1010.3 |
| 20260504192503 | 22 | 128 | 0.0 | 20.9 | 0.00 | 0.00 | 0.00 | 33 | 1010.2 |
| 20260504192010 | 22 | 114 | 0.0 | 20.9 | 0.00 | 0.00 | 0.00 | 33 | 1010.2 |
| 20260504191517 | 22 | 130 | 1.6 | 19.3 | 0.00 | 0.00 | 0.00 | 33 | 1010.3 |
| 20260504191004 | 22 | 123 | 1.6 | 19.3 | 0.00 | 0.00 | 0.00 | 33 | 1010.4 |
| 20260504190508 | 22 | 129 | 0.0 | 16.1 | 0.00 | 0.00 | 0.00 | 32 | 1010.5 |
| 20260504190022 | 22 | 158 | 1.6 | 16.1 | 0.00 | 0.00 | 0.00 | 32 | 1010.7 |
| 20260504185508 | 22 | 117 | 0.0 | 11.3 | 0.00 | 0.00 | 0.00 | 32 | 1010.7 |
| 20260504185009 | 22 | 107 | 1.6 | 11.3 | 0.00 | 0.00 | 0.00 | 32 | 1010.8 |
| 20260504184504 | 22 | 139 | 0.0 | 20.9 | 0.00 | 0.00 | 0.00 | 33 | 1010.8 |
| 20260504184008 | 22 | 122 | 1.6 | 20.9 | 0.00 | 0.00 | 0.00 | 32 | 1010.9 |
| 20260504183505 | 22 | 77 | 3.2 | 14.5 | 0.00 | 0.00 | 0.00 | 31 | 1011.1 |
| 20260504183007 | 22 | 140 | 0.0 | 14.5 | 0.00 | 0.00 | 0.00 | 32 | 1011.0 |
| 20260504182504 | 22 | 124 | 1.6 | 20.9 | 0.00 | 0.00 | 0.00 | 31 | 1011.2 |
| 20260504182010 | 22 | 165 | 3.2 | 20.9 | 0.00 | 0.00 | 0.00 | 31 | 1011.2 |
| 20260504181513 | 22 | 124 | 0.0 | 19.3 | 0.00 | 0.00 | 0.00 | 31 | 1011.0 |
| 20260504181007 | 22 | 127 | 3.2 | 19.3 | 0.00 | 0.00 | 0.00 | 32 | 1011.2 |
| 20260504180509 | 22 | 206 | 0.0 | 19.3 | 0.00 | 0.00 | 0.00 | 32 | 1011.3 |
| 20260504180019 | 22 | 128 | 3.2 | 19.3 | 0.00 | 0.00 | 0.00 | 32 | 1011.5 |
| 20260504175507 | 22 | 148 | 4.8 | 19.3 | 0.00 | 0.00 | 0.00 | 32 | 1011.6 |
| 20260504175007 | 22 | 106 | 0.0 | 16.1 | 0.00 | 0.00 | 0.00 | 33 | 1011.6 |
| 20260504174523 | 22 | 120 | 0.0 | 16.1 | 0.00 | 0.00 | 0.00 | 31 | 1011.6 |
| 20260504174008 | 22 | 77 | 1.6 | 16.1 | 0.00 | 0.00 | 0.00 | 31 | 1011.8 |
| 20260504173509 | 22 | 61 | 0.0 | 22.5 | 0.00 | 0.00 | 0.00 | 33 | 1011.8 |
| 20260504173025 | 22 | 127 | 3.2 | 19.3 | 0.00 | 0.00 | 0.00 | 31 | 1011.8 |
| 20260504172510 | 21 | 127 | 0.0 | 11.3 | 0.00 | 0.00 | 0.00 | 32 | 1011.9 |
| 20260504172003 | 21 | 134 | 1.6 | 17.7 | 0.00 | 0.00 | 0.00 | 32 | 1012.0 |
| 20260504171531 | 21 | 94 | 0.0 | 17.7 | 0.00 | 0.00 | 0.00 | 32 | 1011.9 |
| 20260504171005 | 21 | 123 | 0.0 | 19.3 | 0.00 | 0.00 | 0.00 | 33 | 1012.1 |